Regional Weather Roundup
Issued by NWS

Home | Current Version | Previous Version | Text Only | Print | Product List | Glossary On
Versions: 1 2 3 4 5 6 7 8 9 10 11 12 13 14 15 16 17 18 19 20 21 22 23 24 25 26 27 28
000
ASUS42 KKEY 201710
RWRKEY

FLORIDA REGIONAL WEATHER ROUNDUP FOR THE FLORIDA KEYS
NATIONAL WEATHER SERVICE KEY WEST FLORIDA
100 PM EDT FRI OCT 20 2017

...SOUTH FLORIDA AND THE KEYS...

CITY           SKY/WX    TMP DP  RH WIND       PRES   REMARKS
FORT MYERS     PTSUNNY   82  72  71 E15G24    30.04F
SW REGIONAL AP PTSUNNY   85  74  69 E13G23    30.05F HX  92
NAPLES         PTSUNNY   85  73  67 NE18      30.02F HX  91
MIAMI          PTSUNNY   87  73  62 E14       30.03F HX  94
WEST KENDALL   PTSUNNY   85  73  67 E18       30.03F HX  91
HOMESTEAD      SUNNY     86  77  75 NE17      30.02F HX  98
MARATHON       MOSUNNY   86  73  65 E15G25    30.00F HX  93
KEY WEST INTL  MOSUNNY   86  74  67 E17G24    30.01F HX  94

...INTERNATIONAL WEATHER...

CITY           SKY/WX    TMP DP  RH WIND       PRES   REMARKS
NASSAU BAHAMAS MOSUNNY   90  75  62 NE12      30.01F HX 100
CANCUN MEXICO  PTSUNNY   88  77  70 NE12      29.96F HX 100
COZUMEL MEXICO PTSUNNY   86  79  79 SE7       29.95F HX  99

ADJACENT COASTAL WATERS...

STATION/POSITION TIME  SKY/WX   TEMP    WIND        PRES    WAVE
                                AIR SEA DIR/SP/G            HT/PER
                 (UTC)          (F)     (DEG/KT/KT) (MB)    (FT/S)
PULASKI SHOAL LI 1700            82      70/ 16/ 17 1016.5F
SAND KEY         1650            81                 1016.7F
LONG KEY         NOT AVBL
MOLASSES REEF    1700            83 83   90/ 17/ 19 1016.5F
FOWEY ROCKS      1700            82 83   60/ 17/ 18 1017.4F
Buoy 42097       1500               83                N/A     5/ 6

$$




USA.gov is the U.S. government's official web portal to all federal, state and local government web resources and services.